Regional Weather Roundup
Issued by NWS

Home | Current Version | Previous Version | Text Only | Print | Product List | Glossary On
Versions: 1 2 3 4 5 6 7 8 9 10 11 12 13 14 15 16 17 18 19 20 21 22 23 24 25 26 27 28 29 30 31 32 33 34 35 36 37 38 39 40 41 42 43 44 45 46 47 48 49 50
000
ASUS46 KPQR 300910
RWROR

OREGON REGIONAL WEATHER ROUNDUP
NATIONAL WEATHER SERVICE PORTLAND OR
200 AM PDT SAT MAY 30 2015

NOTE: "FAIR" INDICATES FEW OR NO CLOUDS BELOW 12,000 FEET WITH
NO SIGNIFICANT WEATHER AND/OR OBSTRUCTIONS TO VISIBILITY.

ORZ001>013-301000-
NORTHWEST OREGON


CITY           SKY/WX    TMP DP  RH WIND       PRES   REMARKS
ASTORIA        CLOUDY    53  46  77 W7        30.00F
NEWPORT        MOCLDY    52  46  82 N5        30.03S
PORTLAND       MOCLDY    56  49  77 NW6       29.95R
VANCOUVER WA   MOCLDY    56  47  71 N6        29.94S
SCAPPOOSE      MOCLDY    54  46  74 N10       29.94R
HILLSBORO      MOCLDY    55  47  74 W3        29.93S
AURORA         CLOUDY    57  53  86 S3        29.95R
MCMINNVILLE    CLOUDY    54  49  83 SW9       29.94S
SALEM          CLOUDY    56  48  74 W7        29.93S
CORVALLIS      CLOUDY    52  46  82 W9G18     29.96S
EUGENE         CLOUDY    57  51  80 SW8       29.95S
$$

ORZ021-028-301000-
SOUTHWEST OREGON


CITY           SKY/WX    TMP DP  RH WIND       PRES   REMARKS
NORTH BEND     CLOUDY    54  52  94 N7        30.02F
BROOKINGS      CLOUDY    51  51 100 CALM      29.98F
ROSEBURG       CLOUDY    63  51  65 N6        29.95R
SEXTON SUMMIT  MOCLDY    56  50  80 N9        30.00F
MEDFORD        PTCLDY    69  54  58 CALM      29.91R
$$

ORZ014>016-041-301000-
COLUMBIA GORGE


CITY           SKY/WX    TMP DP  RH WIND       PRES   REMARKS
TROUTDALE      CLOUDY    57  50  77 W3        29.93S
THE DALLES     MOCLDY    69  53  56 NW12      29.84S
$$

ORZ029>031-041-044-049-050-061>064-502-503-505>511-301000-
EASTERN OREGON


CITY           SKY/WX    TMP DP  RH WIND       PRES   REMARKS
REDMOND        CLOUDY    57  53  86 S5        29.97R
BEND           CLOUDY    59  54  82 CALM      29.99R
PRINEVILLE     MOCLDY    57  54  88 NW5       29.98R
KLAMATH FALLS  PTCLDY    54  50  86 E6        30.01S
LAKEVIEW       PTCLDY    52  36  54 SW3       30.06S
HERMISTON      CLOUDY    71  53  52 SW8       29.83R
PENDLETON      CLOUDY    68  53  58 SW9       29.86R
JOHN DAY       MOCLDY    59  55  85 S5        29.99F
MEACHAM        CLOUDY    55  53  93 CALM      29.99R
LA GRANDE      CLOUDY    61  48  63 SE3       29.95F
BAKER CITY     CLOUDY    56  54  93 SW5       30.02F
BURNS          PTCLDY    54  47  77 W8        29.99F
ROME             N/A     64  40  41 SE10      29.96S
ONTARIO        CLOUDY    70  47  43 N6        29.93S
$$



USA.gov is the U.S. government's official web portal to all federal, state and local government web resources and services.